Tracking 35331 objects as of 15-Sep-2026
HD Live streaming from Space Station
objects crossing your sky now

STARLINK-3987

Track STARLINK-3987 now!
10-day predictions
STARLINK-3987 is classified as:


NORAD ID: 52699
Int'l Code: 2022-053AV
Launch date: May 18, 2022
Source: United States (US)
Launch site: AIR FORCE EASTERN TEST RANGE (AFETR)
Your satellite tracking list
Your tracking list is empty




NASA's NSSDC Master Catalog

Two Line Element Set (TLE):
1 52699U 22053AV  26258.26361496 -.00002843  00000-0 -70685-4 0  9992
2 52699  53.1620 353.9448 0000339 182.4187 177.6815 15.35377712240059
Source of the keplerian elements: AFSPC